{"data":{"norad_id":62247,"epoch":"2026-05-25T02:54:36.265248Z","epoch_age_seconds":64499,"freshness":"FRESH","line1":"1 62247U 24232L   26145.12125307  .00000083  00000+0  10934-3 0  9993","line2":"2 62247  89.0101  24.8694 0016438  85.9040 274.3989 13.51006018121273","mean_motion":13.51006018,"eccentricity":0.0016438,"inclination_deg":89.0101,"raan_deg":24.8694,"arg_perigee_deg":85.904,"mean_anomaly_deg":274.3989,"bstar":0.00010934,"rev_number":12127,"period_min":106.58723801481,"perigee_km":1056.3185915044,"apogee_km":1080.800350823,"semimajor_km":7446.6964711637,"source":"CELESTRAK","updated_at":"2026-05-25T13:38:02.867876Z"}}